Regional Weather Roundup
Issued by NWS

Home | Current Version | Previous Version | Graphics & Text | Print | Product List | Glossary On
Versions: 1 2 3 4 5 6 7 8 9 10 11 12 13 14 15 16 17 18 19 20 21 22 23 24 25 26 27 28 29 30 31 32 33 34 35 36 37 38 39 40 41 42 43 44 45 46 47 48 49 50
000
ASUS43 KDMX 221101
RWRIA

WEATHER ROUNDUP FOR IOWA
NATIONAL WEATHER SERVICE DES MOINES IA
500 AM CST WED FEB 22 2017

NOTE: "FAIR" INDICATES FEW OR NO CLOUDS BELOW 12,000 FEET WITH NO
SIGNIFICANT WEATHER AND/OR OBSTRUCTIONS TO VISIBILITY.

* - THESE STATIONS ARE NOT NWS STATIONS...THUS NOT UNDER NWS
QUALITY CONTROL.  THEY ALSO DO NOT REPORT WEATHER SUCH
AS PRECIPITATION OR FOG.

IAZ001>003-012>014-020>022-031>034-043>046-221200-
   NORTHWEST IOWA

CITY           SKY/WX    TMP DP  RH WIND       PRES   REMARKS
CARROLL *      CLEAR     48  37  66 SW17      29.66S
CHEROKEE *     CLEAR     43  34  69 S7        29.64F
DENISON *      CLEAR     46  36  66 S9        29.66S
LE MARS *      CLEAR     37  34  87 S5        29.64F WCI  34
ORANGE CITY *  CLEAR     37  36  93 S7        29.62F WCI  32
SHELDON *      CLOUDY    36  36 100 SE8       29.61F WCI  29
SIOUX CITY     CLEAR     35  32  88 SE8       29.65S WCI  29
SPENCER        CLEAR     36  33  89 CALM      29.64R
STORM LAKE *   CLEAR     45  36  70 SW13      29.65F
$$

IAZ055>058-069>071-079>083-090>094-221200-
   SOUTHWEST IOWA

CITY           SKY/WX    TMP DP  RH WIND       PRES   REMARKS
ATLANTIC *     CLEAR     43  36  75 S12       29.71S
CLARINDA *     CLEAR     43  34  70 S5        29.77R
COUNCIL BLFS * CLEAR     54  36  50 S17G23    29.69F
CRESTON *      CLEAR     43  32  65 S8        29.76S
HARLAN  *      CLEAR     43  36  75 SW6       29.73R
LAMONI         CLEAR     46  35  65 S12       29.76F
RED OAK *      CLEAR     41  34  75 SW5       29.74S
SHENANDOAH *   CLEAR     39  34  81 CALM      29.75S
$$

IAZ047>049-059>061-072>074-084-221200-
   CENTRAL IOWA

CITY           SKY/WX    TMP DP  RH WIND       PRES   REMARKS
AMES           CLEAR     46  36  68 S6        29.68F
ANKENY *       CLEAR     50  34  53 S7G14     29.71F
BOONE *        CLEAR     50  36  57 SW12      29.67F
CHARITON *     CLEAR     46  39  76 SW9       29.75F
DES MOINES     CLEAR     48  33  56 S10       29.72F
GRINNELL*      CLEAR     44  36  72 S10       29.74F
KNOXVILLE *    CLEAR     54  36  50 SW12      29.73F
MARSHALLTOWN   CLEAR     50  35  56 S18       29.68F
NEWTON *       CLEAR     46  36  66 S10       29.72F
PELLA *        CLEAR     49  37  65 S8        29.76R
PERRY *          N/A     48  37  63 S16       29.67F
$$

IAZ004>006-015-016-023>025-035-036-221200-
   NORTH CENTRAL IOWA

CITY           SKY/WX    TMP DP  RH WIND       PRES   REMARKS
ALGONA *       CLEAR     41  36  81 SW7       29.65R
CLARION *      CLEAR     37  37 100 S7        29.66F WCI  32
ESTHERVILLE    CLEAR     37  34  89 SW8       29.63S WCI  31
FORT DODGE *   CLEAR     45  34  65 S8        29.66F
MASON CITY     CLEAR     40  34  79 S6        29.66F
FOREST CITY *    N/A     36  34  93 S3        29.65F
WEBSTER CITY * CLEAR     46  36  66 SW12G17   29.64F
IOWA FALLS *     N/A     43  35  73 S12       29.69S
$$

IAZ007>011-017>019-026>030-037>042-050>054-066-221200-
   NORTHEAST IOWA

CITY           SKY/WX    TMP DP  RH WIND       PRES   REMARKS
CEDAR RAPIDS   CLEAR     44  44 100 S6        29.74S
CHARLES CITY * CLEAR     37  36  93 SE7       29.68F WCI  32
CLINTON *      LGT RAIN  47  47 100 SW10      29.78F VSB 1/4
DECORAH *      CLEAR     45  34  65 S7        29.69R
DUBUQUE        FOG       46  46 100 S14       29.74F VSB 1/4
MONTICELLO *   FOG       46  46 100 S7        29.75S VSB<1/4
OELWEIN *      CLEAR     41  34  75 S12       29.70F
WATERLOO       CLEAR     46  34  62 S16       29.68F
$$

IAZ064-065-067-068-078-221200-
   EAST CENTRAL IOWA

CITY           SKY/WX    TMP DP  RH WIND       PRES   REMARKS
DAVENPORT      FOG       52  51  97 S12       29.79S VSB 1/4
IOWA CITY      FOG       43  42  97 CALM      29.79S VSB 1/4
MUSCATINE *    FOG       41  41 100 CALM      29.80S VSB<1/4
QUAD CITIES    PTCLDY    54  51  90 SW6       29.78F FOG
$$

IAZ062-063-075>077-085>089-095>099-221200-
   SOUTHEAST IOWA

CITY           SKY/WX    TMP DP  RH WIND       PRES   REMARKS
BURLINGTON     FOG       52  52 100 S7        29.80F VSB 1/4
FAIRFIELD *    CLEAR     50  48  93 S8        29.78S FOG
KEOKUK *       FOG       52  52 100 S8        29.80F VSB<1/4
OTTUMWA        CLEAR     47  44  90 S10       29.76F
WASHINGTON *   CLEAR     48  48 100 S10       29.79F FOG
$$

ABBREVIATIONS USED IN REMARKS
   TC - TEMPERATURES IN CELSIUS
  WCI - WIND CHILL INDEX
   HX - HEAT INDEX
  VSB - VISIBILITY
$$





USA.gov is the U.S. government's official web portal to all federal, state and local government web resources and services.